sat.trackr.live / text

‹ back to catalog

STARLINK-31387

NORAD 59407 · 2024-064K

PAYLOAD ACTIVE UNKNOWN

§ Identity

Operator
Country
US
Launch date
2024-04-05
Launch site
AFETR
Launch vehicle
Mass (kg)
RCS (m²)

Purposes: comms

External: N2YO · Heavens-Above · Gunter

§ Orbital elements

Epoch: 2026-05-24T20:53:00.422592Z

Period
94.27 min
Inclination
43.0038°
Eccentricity
0.0001041
Mean motion
15.27580418 rev/d
Perigee alt
482.3 km
Apogee alt
483.8 km
Semi-major
6,861.2 km
B*
5.3853e-5
RAAN
346.2018°
Arg perigee
273.9112°
Mean anomaly
86.1621°
Rev number
12,087

§ Raw data

STARLINK-313871 59407U 24064K   26144.87014378  .00001220  00000+0  53853-4 0  99982 59407  43.0038 346.2018 0001041 273.9112  86.1621 15.27580418120873

JSON: /api/v1/satellites/59407 · /tle

For live sub-satellite position, see the globe view (requires WebGL).

§ Visibility from observer

Set your observer location to see the next 7 days of passes ≥ 10°. The values pass through the URL so the page stays shareable.

No JS? Fill the form by hand. The geolocation button needs JavaScript.